Location: Songkhla
(7.2000°N, 100.6000°E)
Time: 16:47:07
(UTC+07:00)

JAISAT 1 - All Passes

Search period start: 29 November 2021 00:00
Search period end: 09 December 2021 00:00
Orbit: 507 x 538 km, 97.6° (Epoch: 28 November)

Date Brightness Start Highest point End Pass type
(mag) Time Alt. Az. Time Alt. Az. Time Alt. Az.
29 Nov - 02:59:22 10° NE 03:02:20 22° E 03:05:19 10° SSE night (unlit)
29 Nov - 04:35:35 10° WNW 04:36:13 10° WNW 04:36:51 10° W night (unlit)
29 Nov - 14:56:36 10° SE 14:59:51 27° ENE 15:03:04 10° NNE daylight
30 Nov - 02:47:31 10° ENE 02:49:37 14° E 02:51:42 10° SE night (unlit)
30 Nov - 04:21:07 10° NW 04:23:31 16° WNW 04:25:57 10° WSW night (unlit)
30 Nov - 14:44:35 10° ESE 14:47:09 17° ENE 14:49:41 10° NE daylight
30 Nov - 16:19:04 10° SW 16:21:04 14° W 16:23:04 10° WNW daylight
01 Dec - 04:07:41 10° NNW 04:10:48 26° WNW 04:13:59 10° SW night (unlit)
01 Dec - 14:33:21 10° E 14:34:27 11° ENE 14:35:33 10° ENE daylight
01 Dec - 16:05:23 10° SSW 16:08:20 21° W 16:11:16 10° NW daylight
02 Dec - 03:54:33 10° N 03:58:06 41° WNW 04:01:41 10° SSW night (unlit)
02 Dec - 15:52:09 10° SSW 15:55:36 34° W 15:59:02 10° NW daylight
03 Dec - 03:41:39 10° N 03:45:22 69° WNW 03:49:09 10° SSW night (unlit)
03 Dec - 15:39:09 10° S 15:42:52 56° W 15:46:33 10° NNW daylight
04 Dec - 03:28:54 10° NNE 03:32:38 71° E 03:36:26 10° S night (unlit)
04 Dec - 15:26:20 10° SSE 15:30:08 87° E 15:33:53 10° N daylight
05 Dec - 03:16:19 10° NNE 03:19:53 42° E 03:23:31 10° S night (unlit)
05 Dec - 15:13:42 10° SSE 15:17:23 51° ENE 15:21:02 10° N daylight
06 Dec - 03:03:57 10° NE 03:07:09 26° E 03:10:22 10° SSE night (unlit)
06 Dec - 15:01:17 10° SE 15:04:39 31° ENE 15:07:59 10° NNE daylight
07 Dec - 02:51:53 10° ENE 02:54:23 17° E 02:56:54 10° SE night (unlit)
07 Dec - 04:26:13 10° NW 04:28:18 14° WNW 04:30:24 10° WSW night (unlit)
07 Dec - 14:49:06 10° SE 14:51:54 20° ENE 14:54:41 10° NNE daylight
07 Dec - 16:24:29 10° WSW 16:25:50 12° W 16:27:10 10° W daylight
08 Dec - 02:40:44 10° E 02:41:38 11° E 02:42:32 10° ESE night (unlit)
08 Dec - 04:12:34 10° NNW 04:15:33 22° WNW 04:18:34 10° SW night (unlit)
08 Dec - 14:37:27 10° ESE 14:39:10 13° ENE 14:40:52 10° NE daylight
08 Dec - 16:10:25 10° SW 16:13:04 18° W 16:15:42 10° NW daylight
